Погода в Мокрой Савалеевке

Россия / Республика Татарстан     54°56′13″N   48°00′18″E
темп.,
°C
ветер,
м/с
пор.,
м/с
влажн.,
%
обл.,
%
осадки,
мм/ч
давл.,
гПа
погр.,
м
19 января, ср
ср1900:00−2ююз71492100 0.0 1009588
03:00−2ююз7139196 0.1 1010465
06:00−3ююз51195100 0.1 1011390
09:00−5зюз2497100 0.4 1013112
12:00−6ссз339594 0.6 1013194
15:00−7ссз2397100 1.1 101558
18:00−8ссз239678 0.4 101683
21:00−14з2210078 0.4 10179
20 января, чт
чт2000:00−16юз119975 0.1 10189
03:00−17ююз2210098 0.1 10199
06:00−18ю2210097 0.0 101922
09:00−15ю3697100 0.0 101991
12:00−10ююз4119349 0.0 1019240
15:00−11ю389596 0.0 1019124
18:00−11ю399747 0.0 1019113
21:00−11ю379750 0.0 102080
21 января, пт
пт2100:00−12ююз2310077 0.0 102046
03:00−12ю369881 0.1 102074
06:00−9ююв3796100 0.1 1020145
09:00−7ююв5995100 0.1 1021222
12:00−9ююв5109557 0.0 1021231
15:00−11юв5109672 0.0 1021204
18:00−11юв6129697 0.0 1021246
21:00−11ююв61396100 0.1 1021300
22 января, сб
сб2200:00−11юв61395100 0.0 1021300
03:00−11юв61495100 0.1 1021328
06:00−11юв61295100 0.0 1022288
09:00−11юв61395100 0.1 1023327
12:00−9юв61295100 0.5 1024345
15:00−7юв61295100 1.3 1024419
18:00−7юв61295100 1.1 1025453
21:00−7юв61294100 1.3 1026366
23 января, вс
вс2300:00−7юв61394100 0.2 1026386
03:00−7юв71494100 1.1 1028434
06:00−8юв61294100 0.3 1029332
09:00−8юв61295100 1.3 1031356
12:00−7юв61294100 1.1 1032364
15:00−7юв51194100 1.3 1034336
18:00−7юв4895100 0.3 1035265
21:00−8ююв4894100 0.6 1036233